Home > Time Zones > World Clock > Weather > U.S.A. > Yuma > Past weeks

Flag for U.S.A. Weather past 2 weeks in Yuma, Arizona, U.S.A.

Now
63 °F

Passing clouds.


Feels Like: 63 °F
Forecast: 55 / 70 °F
Wind: No wind

Location: Yuma Marine Corps Air Station

Current Time: Jan 30, 2015 at 10:53:26 PM

Latest Report: Jan 30, 2015 at 9:57 PM


Visibility: 10 mi

Pressure: 29.84 "Hg

Humidity: 68%

Dew point: 52 °F

Location of YumaLocation

Historic Weather in Yuma — Graph

°F

Yuma temperature yesterday

Maximum temperature yesterday: 73 °F (at 12:57 PM)
Minimum temperature yesterday: 59 °F (at 3:57 AM)
Average temperature yesterday: 66 °F

Past Weeks' High & Low Weather Summary

 TemperatureHumidityPressure
High80 °F (Jan 19, 3:57 PM)90% (Jan 28, 2:57 AM)30.33 "Hg (Jan 28, 2:57 AM)
Low48 °F (Jan 23, 7:57 AM)6% (Jan 22, 3:57 PM)29.81 "Hg (Jan 30, 3:57 PM)
Average62 °F41%30.09 "Hg
* Reported Jan 15 8:57 PM — Jan 30 8:57 PM, Yuma, Weather by CustomWeather, © 2014

Note: Actual official high and low records may vary slightly from our data, if they occured in-between our weather recording intervals... More about our weather records

Advertising

Yuma weather history for previous 24 hours

 ConditionsComfort  
Time TempWeatherWind HumidityBarometerVisibility
8:57 PM
Jan 30
63 °FPassing clouds.No wind65%29.84 "Hg10 mi
7:57 PM64 °FPartly cloudy.6 mph65%29.83 "Hg10 mi
6:57 PM65 °FPartly cloudy.5 mph63%29.83 "Hg10 mi
5:57 PM67 °FBroken clouds.5 mph59%29.81 "Hg10 mi
4:57 PM67 °FBroken clouds.6 mph57%29.81 "Hg10 mi
3:57 PM69 °FPartly sunny.3 mph55%29.81 "Hg10 mi
2:57 PM69 °FPartly sunny.8 mph55%29.82 "Hg10 mi
1:57 PM67 °FPartly sunny.6 mph61%29.84 "Hg10 mi
12:57 PM66 °FBroken clouds.5 mph65%29.87 "Hg10 mi
11:57 AM66 °FBroken clouds.7 mph63%29.90 "Hg10 mi
10:57 AM64 °FBroken clouds.5 mph68%29.93 "Hg10 mi
9:57 AM62 °FPartly sunny.6 mph80%29.92 "Hg10 mi
8:57 AM60 °FPartly sunny.No wind90%29.91 "Hg10 mi
7:57 AM59 °FPartly sunny.5 mph90%29.91 "Hg10 mi
6:57 AM59 °FPassing clouds.No wind90%29.90 "Hg10 mi
5:57 AM60 °FMostly cloudy.3 mph86%29.90 "Hg10 mi
4:57 AM60 °FLight rain. Overcast.5 mph90%29.90 "Hg10 mi
3:57 AM61 °FMostly cloudy.5 mph87%29.92 "Hg10 mi
2:57 AM62 °FOvercast.5 mph83%29.94 "Hg10 mi
1:57 AM62 °FOvercast.7 mph83%29.93 "Hg10 mi
12:57 AM63 °FPassing clouds.8 mph75%29.95 "Hg10 mi
11:57 PM
Jan 29
64 °FPassing clouds.7 mph65%29.97 "Hg10 mi
10:57 PM65 °FOvercast.6 mph61%29.98 "Hg10 mi
Weather by CustomWeather, © 2014

See weather overviewHow to use our weather pages